Home   Weather   Arden-Arcade   Past weeks

Flag for USA Past Weather in Arden-Arcade, California, USA — Yesterday and Last 2 Weeks

Now
90 °F

Passing clouds.


Feels Like: 87 °F
Forecast: 60 / 87 °F
Wind: 13 mph from Southwest

Location: Mather Field

Current Time: Aug 30, 2016 at 7:27:34 PM

Latest Report: Aug 30, 2016 at 6:45 PM


Visibility: 10 mi

Pressure: 29.83 "Hg

Humidity: 27%

Dew Point: 52 °F

Location of Arden-ArcadeLocation

Past Weather in Arden-Arcade — Graph

°F

Arden-Arcade Temperature Yesterday

Maximum temperature yesterday: 90 °F (at 5:45 PM)
Minimum temperature yesterday: 52 °F (at 5:45 AM)
Average temperature yesterday: 71 °F

High & Low Weather Summary for the Past Weeks

 TemperatureHumidityPressure
High99 °F (Aug 16, 4:55 PM)100% (Aug 25, 5:45 AM)30.08 "Hg (Aug 25, 5:45 AM)
Low50 °F (Aug 25, 5:45 AM)16% (Aug 16, 6:45 PM)29.72 "Hg (Aug 17, 6:47 PM)
Average73 °F53%29.89 "Hg
* Reported Aug 15 5:45 PM — Aug 30 5:55 PM, Arden-Arcade, Weather by CustomWeather, © 2016

Note: Actual official high and low records may vary slightly from our data, if they occured in-between our weather recording intervals... More about our weather records

Advertising

Arden-Arcade Weather History for the Previous 24 Hours

Scroll right to see more
 ConditionsComfort  
Time TempWeatherWind HumidityBarometerVisibility
5:55 PM
Tue, Aug 30
91 °FSunny.8 mph20%29.83 "Hg10 mi
4:55 PM91 °FSunny.7 mph20%29.85 "Hg10 mi
3:55 PM91 °FSunny.7 mph21%29.86 "Hg10 mi
2:50 PM88 °FSunny.8 mph24%29.89 "Hg10 mi
1:55 PM86 °FPleasantly warm.6 mph27%29.91 "Hg10 mi
12:45 PM82 °FSunny.3 mph35%N/A10 mi
11:45 AM79 °FSunny.7 mph42%29.96 "Hg10 mi
10:45 AM73 °FSunny.8 mph50%29.97 "Hg10 mi
9:45 AM68 °FSunny.5 mph60%29.98 "Hg10 mi
8:45 AM66 °FSunny.7 mph64%29.99 "Hg10 mi
7:45 AM63 °FSunny.8 mph73%29.97 "Hg10 mi
6:45 AM57 °FClear.7 mph88%29.96 "Hg10 mi
5:45 AM59 °FClear.7 mph82%29.95 "Hg10 mi
4:55 AM61 °FClear.6 mph77%29.95 "Hg10 mi
3:45 AM61 °FClear.5 mph77%29.96 "Hg10 mi
2:55 AM61 °FClear.7 mph77%29.96 "Hg10 mi
10:45 PM
Mon, Aug 29
59 °FPassing clouds.7 mph72%29.96 "Hg10 mi
9:45 PM63 °FPassing clouds.6 mph64%29.96 "Hg10 mi
8:45 PM68 °FPassing clouds.6 mph53%29.95 "Hg10 mi
7:45 PM75 °FScattered clouds.9 mph47%29.94 "Hg10 mi
Weather by CustomWeather, © 2016

See weather overviewHow to use our weather pages